KG7EW Weather Reports


Display with metric or nautical units.
time (UTC)temp
F
wind
direction
speed
MPH
gust
MPH
rain 1hr
in
rain 24hr
in
rain mn
in
humidity
%
barometer
mb
20260502151002 52 82 0.0 1.0 0.00 0.00 0.00 42 1014.2
20260502123024 35 254 0.0 0.0 0.00 0.00 0.00 73 1014.4
20260502122002 35 259 0.0 0.0 0.00 0.00 0.00 74 1014.4
20260502121001 35 254 0.0 0.0 0.00 0.00 0.00 75 1014.5
20260502115003 34 256 0.0 0.0 0.00 0.00 0.00 76 1014.4
20260502114002 35 256 0.0 0.0 0.00 0.00 0.00 75 1014.2
20260502113002 35 256 0.0 0.0 0.00 0.00 0.00 75 1014.2
20260502112002 35 254 0.0 0.0 0.00 0.00 0.00 75 1014.1
20260502111002 35 257 0.0 0.0 0.00 0.00 0.00 75 1014.0
20260502110001 35 256 0.0 0.0 0.00 0.00 0.00 75 1014.0
20260502105002 36 256 0.0 0.0 0.00 0.00 0.00 75 1013.7
20260502104001 36 256 0.0 0.0 0.00 0.00 0.00 74 1013.7
20260502103002 36 256 0.0 0.0 0.00 0.00 0.00 74 1013.7
20260502102001 36 256 0.0 0.0 0.00 0.00 0.00 74 1013.6
20260502101023 36 256 0.0 0.0 0.00 0.00 0.00 73 1013.9
20260502091002 38 257 0.0 0.0 0.00 0.00 0.00 70 1013.8
20260502071001 40 256 0.0 0.0 0.00 0.00 0.00 68 1013.8
20260502070002 40 257 0.0 0.0 0.00 0.00 0.00 67 1013.8
20260502065002 41 256 0.0 0.0 0.00 0.00 0.00 67 1013.7
20260502064002 41 256 0.0 0.0 0.00 0.00 0.00 66 1013.6
20260502063002 41 256 0.0 0.0 0.00 0.00 0.00 66 1013.6
20260502062002 41 257 0.0 0.0 0.00 0.00 0.00 66 1013.4
20260502061002 41 256 0.0 0.0 0.00 0.00 0.00 65 1012.9
20260502060002 42 256 0.0 0.0 0.00 0.00 0.00 65 1012.9
20260502055024 42 257 0.0 0.0 0.00 0.00 0.00 65 1013.0
20260502054002 42 256 0.0 0.0 0.00 0.00 0.00 64 1012.9
20260502053023 43 256 0.0 0.0 0.00 0.00 0.00 63 1012.9
20260502052001 43 256 0.0 0.0 0.00 0.00 0.00 62 1012.4
20260502051003 44 256 0.0 0.0 0.00 0.00 0.00 61 1013.0
20260502050002 44 256 0.0 0.0 0.00 0.00 0.00 61 1013.0
20260502045001 45 257 0.0 0.0 0.00 0.00 0.00 60 1013.0
20260502044023 45 257 0.0 0.0 0.00 0.00 0.00 60 1012.6
20260502043002 46 256 0.0 0.0 0.00 0.00 0.00 59 1012.6
20260502042002 47 257 0.0 0.0 0.00 0.00 0.00 57 1012.6
20260502041002 47 256 0.0 0.0 0.00 0.00 0.00 55 1013.1
20260502040003 48 256 0.0 0.0 0.00 0.00 0.00 53 1013.1
20260502035003 49 256 0.0 0.0 0.00 0.00 0.00 52 1012.6
20260502034002 50 256 0.0 0.0 0.00 0.00 0.00 48 1012.2
20260502033002 50 257 0.0 0.0 0.00 0.00 0.00 46 1012.2
20260502032002 51 257 0.0 0.0 0.00 0.00 0.00 45 1011.7
20260502031003 51 257 0.0 0.0 0.00 0.00 0.00 44 1012.2
20260502030003 52 256 0.0 0.0 0.00 0.00 0.00 43 1012.2
20260502025022 53 257 0.0 0.0 0.00 0.00 0.00 42 1011.6
20260502024023 54 253 0.0 0.0 0.00 0.00 0.00 40 1011.3
20260502023003 55 252 0.0 0.0 0.00 0.00 0.00 41 1011.3
20260502022002 56 259 0.0 0.0 0.00 0.00 0.00 40 1010.8
20260502021024 58 261 0.0 0.0 0.00 0.00 0.00 39 1011.0
20260502020002 60 252 0.0 0.0 0.00 0.00 0.00 38 1011.0
20260502015003 62 253 0.0 0.0 0.00 0.00 0.00 36 1010.7
20260502014002 63 253 0.0 0.0 0.00 0.00 0.00 32 1010.5
20260502013002 65 256 0.0 0.0 0.00 0.00 0.00 29 1010.5
20260502012002 65 259 0.0 2.0 0.00 0.00 0.00 27 1010.1
20260502011003 66 300 0.0 1.0 0.00 0.00 0.00 25 1011.8
20260502010002 67 302 0.0 0.0 0.00 0.00 0.00 20 1011.8
20260502005023 68 298 0.0 1.0 0.00 0.00 0.00 19 1011.5
20260502004003 69 295 0.0 1.0 0.00 0.00 0.00 22 1011.5
20260502003002 69 316 0.0 0.0 0.00 0.00 0.00 21 1011.5
20260502002002 68 318 0.0 3.0 0.00 0.00 0.00 20 1011.9
20260502001023 67 358 0.0 2.0 0.00 0.00 0.00 21 1011.6
20260502000002 67 30 0.0 5.0 0.00 0.00 0.00 22 1011.6
20260501235023 67 330 0.0 2.0 0.00 0.00 0.00 20 1011.8
20260501234002 67 356 1.0 5.0 0.00 0.00 0.00 22 1012.0
20260501233002 67 353 1.0 5.0 0.00 0.00 0.00 22 1012.0
20260501232002 67 340 0.0 0.0 0.00 0.00 0.00 22 1011.9
20260501231003 67 355 1.0 6.0 0.00 0.00 0.00 21 1011.7
20260501230003 68 263 0.0 2.0 0.00 0.00 0.00 22 1011.7
20260501225003 68 276 0.0 5.0 0.00 0.00 0.00 20 1011.7
20260501224002 67 284 0.0 2.0 0.00 0.00 0.00 25 1012.3
20260501223002 67 287 0.0 2.0 0.00 0.00 0.00 26 1012.3
20260501222002 67 313 0.0 5.0 0.00 0.00 0.00 22 1012.6
20260501221002 66 275 0.0 6.0 0.00 0.00 0.00 23 1012.7
20260501220002 65 346 0.0 6.0 0.00 0.00 0.00 22 1012.7
20260501215023 65 23 3.0 6.0 0.00 0.00 0.00 24 1012.9
20260501214023 65 347 0.0 8.0 0.00 0.00 0.00 26 1013.1
20260501213002 65 56 1.0 7.0 0.00 0.00 0.00 24 1013.1
20260501212023 65 351 2.0 7.0 0.00 0.00 0.00 27 1013.2
20260501211024 65 7 2.0 6.0 0.00 0.00 0.00 24 1013.6
20260501210002 64 41 1.0 7.0 0.00 0.00 0.00 24 1013.6
20260501205024 64 357 4.0 10.0 0.00 0.00 0.00 26 1013.6
20260501204002 64 4 1.0 7.0 0.00 0.00 0.00 25 1013.6
20260501203002 64 4 2.0 8.0 0.00 0.00 0.00 27 1013.6
20260501202002 64 61 3.0 10.0 0.00 0.00 0.00 24 1013.6
20260501201023 63 311 0.0 7.0 0.00 0.00 0.00 23 1013.8
20260501200002 63 47 3.0 8.0 0.00 0.00 0.00 23 1013.8
20260501195002 64 50 1.0 6.0 0.00 0.00 0.00 26 1013.7
20260501194002 64 268 1.0 5.0 0.00 0.00 0.00 26 1013.7
20260501193002 64 24 0.0 0.0 0.00 0.00 0.00 26 1013.7
20260501192002 63 356 0.0 0.0 0.00 0.00 0.00 28 1014.2
20260501191003 63 302 0.0 6.0 0.00 0.00 0.00 27 1013.9
20260501190002 62 276 1.0 7.0 0.00 0.00 0.00 27 1013.9
20260501185002 62 328 0.0 3.0 0.00 0.00 0.00 32 1014.0
20260501184002 62 295 0.0 0.0 0.00 0.00 0.00 26 1014.4
20260501183001 62 291 0.0 7.0 0.00 0.00 0.00 26 1014.4
20260501182002 62 247 1.0 7.0 0.00 0.00 0.00 24 1014.5
20260501181002 61 124 1.0 5.0 0.00 0.00 0.00 27 1014.3
20260501180004 62 198 0.0 5.0 0.00 0.00 0.00 23 1014.3
20260501175002 61 106 0.0 0.0 0.00 0.00 0.00 27 1014.5
20260501174002 60 48 1.0 5.0 0.00 0.00 0.00 25 1014.6
20260501173003 60 27 0.0 0.0 0.00 0.00 0.00 26 1014.6
20260501172002 60 216 0.0 1.0 0.00 0.00 0.00 26 1014.9
20260501171002 59 127 0.0 3.0 0.00 0.00 0.00 26 1015.0
20260501170003 58 51 0.0 1.0 0.00 0.00 0.00 29 1015.0
20260501165003 57 119 0.0 0.0 0.00 0.00 0.00 27 1015.1
20260501164002 57 75 0.0 1.0 0.00 0.00 0.00 30 1015.0
20260501163003 57 44 0.0 0.0 0.00 0.00 0.00 37 1015.0
20260501162003 55 41 0.0 0.0 0.00 0.00 0.00 37 1015.4
20260501161023 54 51 0.0 1.0 0.00 0.00 0.00 41 1015.5
20260501160044 53 44 0.0 0.0 0.00 0.00 0.00 43 1015.5
20260501155003 53 44 0.0 0.0 0.00 0.00 0.00 47 1015.4
20260501154002 52 67 0.0 0.0 0.00 0.00 0.00 49 1015.9
20260501153003 51 81 0.0 0.0 0.00 0.00 0.00 51 1015.9
20260501152002 50 88 0.0 0.0 0.00 0.00 0.00 50 1016.3